Regional Weather Roundup
Issued by NWS Boston, MA

Current Version | Previous Version | Text Only | Print | Product List | Glossary Off
Versions: 1 2 3 4 5 6 7 8 9 10 11 12 13 14 15 16 17 18 19 20 21 22 23 24 25 26 27 28 29 30 31 32 33 34 35 36 37 38 39 40 41 42 43 44 45 46 47 48 49 50
000 ASUS41 KBOX 181210 RWRBOX REGIONAL WEATHER ROUNDUP NATIONAL WEATHER SERVICE BOSTON/NORTON MA 800 AM EDT TUE SEP 18 2018 NOTE: "FAIR" INDICATES FEW OR NO CLOUDS BELOW 12,000 FEET WITH NO SIGNIFICANT WEATHER AND/OR OBSTRUCTIONS TO VISIBILITY. MAZALL-181300- EASTERN MASSACHUSETTS CITY SKY/WX TMP DP RH WIND PRES REMARKS BOSTON LGT RAIN 74 71 91 S10 29.79F 6HR MIN TEMP: 71; 6HR MAX TEMP: 74; 6HR PCP: 0.21; BEVERLY LGT RAIN 70 70 100 SE14 29.78F FOG LAWRENCE HVY RAIN 72 68 87 CALM 29.78F FOG BEDFORD LGT RAIN 73 70 90 S10 29.77F FOG BLUE HILL N/A 71 71 100 S17G25 29.80F NORWOOD CLOUDY 76 73 91 S8 29.78F MARSHFIELD PTSUNNY 75 73 94 S7 29.81F PLYMOUTH PTSUNNY 75 72 90 S12G23 29.82F TAUNTON CLOUDY 76 72 87 S9G20 29.80F NEW BEDFORD CLOUDY 76 74 93 S20G30 29.81F $$ MAZALL-181300- CAPE COD AND THE ISLANDS CITY SKY/WX TMP DP RH WIND PRES REMARKS FALMOUTH PTSUNNY 73 72 94 S14G21 29.85F HYANNIS CLOUDY 74 71 91 S12G18 29.84F CHATHAM FAIR 71 69 93 S6 29.87F PROVINCETOWN FAIR 73 71 93 S14 29.83F NANTUCKET FAIR 70 69 97 S13 29.88F MARTHAS VNYRD FAIR 73 73 100 S16 29.84F $$ MAZALL-181300- CENTRAL AND WESTERN MASSACHUSETTS CITY SKY/WX TMP DP RH WIND PRES REMARKS WORCESTER CLOUDY 71 70 96 S12 29.80F 6HR MIN TEMP: 68; 6HR MAX TEMP: 71; 6HR PCP: 0.26; FITCHBURG HVY RAIN 67 67 100 CALM 29.79F FOG ORANGE RAIN 69 66 90 E6 29.79F FOG SPRINGFIELD NOT AVBL WESTFIELD RAIN 73 73 100 S9 29.74F FOG NORTH ADAMS RAIN 66 66 100 CALM 29.79F FOG PITTSFIELD RAIN 66 63 90 NE3 29.80R VSB 1 $$ RIZALL-181300- RHODE ISLAND CITY SKY/WX TMP DP RH WIND PRES REMARKS PROVIDENCE LGT RAIN 76 73 91 SW18G24 29.80F 6HR MIN TEMP: 72; 6HR MAX TEMP: 76; 6HR PCP: TRACE; NEWPORT CLOUDY 74 72 93 S15G29 29.82F BLOCK ISLAND CLOUDY 73 72 96 S17 29.83F SMITHFIELD CLOUDY 73 72 96 VRB7G18 29.80F WESTERLY CLOUDY 75 74 96 S14 29.82F $$ CTZALL-181300- CONNECTICUT CITY SKY/WX TMP DP RH WIND PRES REMARKS BRADLEY INTL LGT RAIN 75 73 93 S13 29.75F 6HR MIN TEMP: 71; 6HR MAX TEMP: 75; 6HR PCP: 0.19; HARTFORD CLOUDY 75 73 93 S12 29.75F BRIDGEPORT CLOUDY 76 73 91 S17 29.77F DANBURY PTSUNNY 74 73 97 SW9 29.79S GROTON CLOUDY 75 72 90 S17 29.79F NEW HAVEN CLOUDY 77 74 90 SW13G22 29.78F CHESTER CLOUDY 73 73 100 S13G18 29.80F FOG MERIDEN RAIN 75 72 90 S9G20 29.77F WILLIMANTIC CLOUDY 74 74 100 S9G17 29.79F OXFORD LGT RAIN 73 72 96 SW8G16 29.80F FOG $$ MEZ002-015-021-024-NHZ003-005-008-011-012-014-VTZ005-008-181300- NORTHERN NEW ENGLAND CITY SKY/WX TMP DP RH WIND PRES REMARKS PORTLAND ME LGT RAIN 69 68 96 S9G18 29.82F 6HR MIN TEMP: 69; 6HR MAX TEMP: 71; 6HR PCP: 0.07; BANGOR ME PTSUNNY 67 64 90 S8 29.80F CONCORD NH HVY RAIN 68 67 96 E6 29.81F FOG MANCHESTER NH HVY RAIN 68 68 100 N10 29.79F VSB 1 NASHUA NH HVY RAIN 68 68 100 N5 29.80S FOG PORTSMOUTH NH NOT AVBL JAFFREY NH HVY RAIN 66 66 100 CALM 29.83S FOG KEENE NH RAIN N/A N/A N/A CALM 29.79 BURLINGTON VT PTSUNNY 71 67 87 CALM 29.80R MT. WASHINGTON FOG 52 52 100 W20G29 N/A VSB 1/16 $$ NYZ052-076-181300- EASTERN NEW YORK CITY SKY/WX TMP DP RH WIND PRES REMARKS ALBANY LGT RAIN 68 65 90 NW7 29.80S FOG 6HR MIN TEMP: 68; 6HR MAX TEMP: 71; 6HR PCP: 2.07; NEW YORK CITY LGT RAIN 78 73 84 S8 29.77S 6HR MIN TEMP: 76; 6HR MAX TEMP: 78; 6HR PCP: 0.01; $$ ANZALL-181300- MARINE OBSERVATIONS STATION/POSITION TIME TEMP WIND PRES VSBY WAVE AIR SEA DIR/SP/G HT/PER (UTC) (F) (DEG/KT/KT) (MB) (MI) (FT/S) BOSTON BUOY 1150 69 68 120/ 12/ 14 1008.4F 2/ 9 BUZZARDS BAY 1100 72 180/ 21/ 23 1011.0F NANTUCKET SOUND 1150 73 72 190/ 16/ 19 1010.7F 1/ 3 MASS BAY-STELLWA NOT AVBL ISLE OF SHOALS 1100 68 200/ 11/ 11 1010.4F S OF BLOCK IS 1143 69 N/A 3/ 9 $$ ......................KEY......................... SKY/WX - SKY CONDITION/PRESENT WEATHER TMP - TEMPERATURE IN FAHRENHEIT DWPT - DEWPOINT IN FAHRENHEIT RH - RELATIVE HUMIDITY IN PERCENT WIND - DIRECTION AND SPEED IN MPH PRES - MEAN SEA LEVEL PRESSURE IN INCHES OF HG WCI - WIND CHILL INDEX VSB - VISIBILITY IN MILES HX - HEAT INDEX TC - TEMPERATURE IN CELSIUS VRB - VARIABLE WIND DIRECTION N/A - NOT AVAILABLE

USA.gov is the U.S. government's official web portal to all federal, state and local government web resources and services.